When you browse on this site, cookies collect data to enhance your experience and personalize the content and advertising you see.
Visit our Privacy Policy to learn more. By continuing to use the site, you agree to this use of cookies and data.
  • In Czech Republic
  • List of Countries
  • For 7 days
  • Water Temperature
  • Weather Map
  • Weather Widgets
  • user-avatar
    Login

    Hourly Weather Ivanovskoe-1

    Today, 21 January, Tuesday

    Time Temperature Precipitation Wind Pressure Humidity
    00:00 -2°C° 0 mm 5 mps 749 mmHg 85%
    01:00 -2°C° 0 mm 5 mps 749 mmHg 85%
    02:00 -2°C° 0 mm 5 mps 748 mmHg 86%
    03:00 -2°C° 0.1 mm 5 mps 747 mmHg 88%
    04:00 -3°C° 0.1 mm 6 mps 746 mmHg 91%
    05:00 -3°C° 0.1 mm 6 mps 745 mmHg 93%
    06:00 -3°C° 0.1 mm 6 mps 745 mmHg 94%
    07:00 -2°C° 0.1 mm 6 mps 744 mmHg 95%
    08:00 -2°C° 0.1 mm 6 mps 743 mmHg 95%
    09:00 -2°C° 0 mm 6 mps 742 mmHg 93%
    10:00 -1°C° 0 mm 6 mps 741 mmHg 91%
    11:00 -1°C° 0 mm 6 mps 741 mmHg 89%
    12:00 +1°C° 0.3 mm 6 mps 740 mmHg 89%
    13:00 +1°C° 0.3 mm 6 mps 740 mmHg 90%
    14:00 +1°C° 0.3 mm 6 mps 739 mmHg 90%
    15:00 +1°C° 0.1 mm 6 mps 738 mmHg 91%
    16:00 +1°C° 0.1 mm 6 mps 737 mmHg 91%
    17:00 +1°C° 0.1 mm 5 mps 736 mmHg 92%
    18:00 +2°C° 0.8 mm 6 mps 735 mmHg 92%
    19:00 +2°C° 0.8 mm 6 mps 735 mmHg 93%
    20:00 +2°C° 0.8 mm 6 mps 734 mmHg 93%
    21:00 +2°C° 0.5 mm 6 mps 733 mmHg 92%
    22:00 +2°C° 0.5 mm 6 mps 733 mmHg 90%
    23:00 +1°C° 0.5 mm 6 mps 733 mmHg 88%

    Tomorrow, 22 January, Wednesday

    Time Temperature Precipitation Wind Pressure Humidity
    00:00 -1°C° 0.1 mm 6 mps 734 mmHg 86%
    01:00 -2°C° 0.1 mm 6 mps 734 mmHg 83%
    02:00 -2°C° 0.1 mm 5 mps 735 mmHg 81%
    03:00 -2°C° 0 mm 5 mps 735 mmHg 80%
    04:00 -4°C° 0 mm 5 mps 734 mmHg 79%
    05:00 -4°C° 0 mm 5 mps 734 mmHg 78%
    06:00 -4°C° 0 mm 5 mps 734 mmHg 79%
    07:00 -4°C° 0 mm 5 mps 733 mmHg 81%
    08:00 -4°C° 0 mm 5 mps 733 mmHg 82%
    09:00 -4°C° 0 mm 6 mps 733 mmHg 80%
    10:00 -3°C° 0 mm 6 mps 732 mmHg 79%
    11:00 -3°C° 0 mm 6 mps 732 mmHg 77%
    12:00 -3°C° 0 mm 6 mps 732 mmHg 75%
    13:00 -3°C° 0 mm 6 mps 731 mmHg 74%
    14:00 -2°C° 0 mm 5 mps 731 mmHg 73%
    15:00 -2°C° 0.1 mm 5 mps 731 mmHg 75%
    16:00 -4°C° 0.1 mm 5 mps 731 mmHg 77%
    17:00 -3°C° 0.1 mm 4 mps 731 mmHg 80%
    18:00 -4°C° 0 mm 4 mps 731 mmHg 80%
    19:00 -4°C° 0 mm 4 mps 731 mmHg 79%
    20:00 -4°C° 0 mm 4 mps 732 mmHg 79%
    21:00 -4°C° 0 mm 4 mps 732 mmHg 78%
    22:00 -5°C° 0 mm 5 mps 732 mmHg 78%
    23:00 -5°C° 0 mm 5 mps 733 mmHg 77%

    Day after tomorrow, 23 January, Thursday

    Time Temperature Precipitation Wind Pressure Humidity
    00:00 -6°C° 0 mm 6 mps 733 mmHg 77%
    01:00 -6°C° 0 mm 6 mps 734 mmHg 77%
    02:00 -6°C° 0 mm 6 mps 734 mmHg 77%
    03:00 -6°C° 0 mm 6 mps 735 mmHg 74%
    04:00 -8°C° 0 mm 6 mps 735 mmHg 72%
    05:00 -8°C° 0 mm 6 mps 735 mmHg 70%
    06:00 -9°C° 0 mm 6 mps 736 mmHg 68%
    07:00 -9°C° 0 mm 6 mps 737 mmHg 66%
    08:00 -9°C° 0 mm 6 mps 737 mmHg 64%
    09:00 -9°C° 0 mm 6 mps 738 mmHg 60%
    10:00 -9°C° 0 mm 6 mps 738 mmHg 57%
    11:00 -9°C° 0 mm 7 mps 739 mmHg 54%
    12:00 -8°C° 0.1 mm 6 mps 739 mmHg 57%
    13:00 -8°C° 0.1 mm 6 mps 739 mmHg 60%
    14:00 -8°C° 0.1 mm 6 mps 740 mmHg 63%
    15:00 -8°C° 0 mm 6 mps 740 mmHg 65%
    16:00 -8°C° 0 mm 6 mps 741 mmHg 66%
    17:00 -8°C° 0 mm 6 mps 741 mmHg 68%
    18:00 -8°C° 0 mm 5 mps 742 mmHg 67%
    19:00 -8°C° 0 mm 5 mps 742 mmHg 66%
    20:00 -8°C° 0 mm 4 mps 743 mmHg 65%
    21:00 -8°C° 0 mm 4 mps 743 mmHg 66%
    22:00 -9°C° 0 mm 4 mps 744 mmHg 67%
    23:00 -8°C° 0 mm 3 mps 744 mmHg 69%

    24 January, Friday

    Time Temperature Precipitation Wind Pressure Humidity
    00:00 -8°C° 0 mm 3 mps 744 mmHg 68%
    01:00 -8°C° 0 mm 3 mps 744 mmHg 67%
    02:00 -8°C° 0 mm 3 mps 744 mmHg 66%
    03:00 -8°C° 0 mm 3 mps 744 mmHg 71%
    04:00 -7°C° 0 mm 3 mps 744 mmHg 75%
    05:00 -7°C° 0 mm 3 mps 743 mmHg 80%
    06:00 -7°C° 0.1 mm 4 mps 743 mmHg 84%
    07:00 -7°C° 0.1 mm 4 mps 742 mmHg 88%
    08:00 -7°C° 0.1 mm 4 mps 742 mmHg 92%
    09:00 -6°C° 0.1 mm 5 mps 742 mmHg 90%
    10:00 -5°C° 0.1 mm 5 mps 741 mmHg 88%
    11:00 -5°C° 0.1 mm 5 mps 741 mmHg 86%
    12:00 -4°C° 0 mm 5 mps 741 mmHg 87%
    13:00 -4°C° 0 mm 5 mps 740 mmHg 88%
    14:00 -4°C° 0 mm 6 mps 740 mmHg 90%
    15:00 -2°C° 0 mm 5 mps 740 mmHg 90%
    16:00 -2°C° 0 mm 5 mps 740 mmHg 90%
    17:00 -1°C° 0 mm 5 mps 740 mmHg 90%
    18:00 -1°C° 0 mm 4 mps 740 mmHg 90%
    19:00 0°C° 0 mm 4 mps 741 mmHg 90%
    20:00 0°C° 0 mm 4 mps 741 mmHg 90%
    21:00 0°C° 0 mm 4 mps 741 mmHg 91%
    22:00 0°C° 0 mm 4 mps 741 mmHg 92%
    23:00 0°C° 0 mm 4 mps 741 mmHg 94%

    25 January, Saturday

    Time Temperature Precipitation Wind Pressure Humidity
    00:00 -1°C° 0 mm 4 mps 741 mmHg 94%
    01:00 -1°C° 0 mm 4 mps 741 mmHg 95%
    02:00 -1°C° 0 mm 5 mps 741 mmHg 96%
    03:00 -1°C° 0 mm 5 mps 740 mmHg 96%
    04:00 -1°C° 0 mm 5 mps 740 mmHg 96%
    05:00 -1°C° 0 mm 5 mps 740 mmHg 96%
    06:00 -1°C° 0 mm 5 mps 740 mmHg 95%
    07:00 -1°C° 0 mm 5 mps 740 mmHg 94%
    08:00 -1°C° 0 mm 5 mps 740 mmHg 93%
    09:00 -1°C° 0 mm 5 mps 740 mmHg 91%
    10:00 -1°C° 0 mm 5 mps 740 mmHg 89%
    11:00 0°C° 0 mm 5 mps 740 mmHg 87%
    12:00 0°C° 0 mm 5 mps 740 mmHg 87%
    13:00 0°C° 0 mm 5 mps 740 mmHg 87%
    14:00 0°C° 0 mm 4 mps 741 mmHg 87%
    15:00 -1°C° 0 mm 4 mps 741 mmHg 89%
    16:00 -1°C° 0 mm 4 mps 741 mmHg 90%
    17:00 -1°C° 0 mm 4 mps 741 mmHg 91%
    18:00 -1°C° 0 mm 4 mps 741 mmHg 93%
    19:00 -1°C° 0 mm 4 mps 742 mmHg 95%
    20:00 -1°C° 0 mm 3 mps 742 mmHg 97%
    21:00 -1°C° 0 mm 3 mps 742 mmHg 97%
    22:00 -1°C° 0 mm 3 mps 742 mmHg 96%
    23:00 -1°C° 0 mm 3 mps 742 mmHg 96%

    26 January, Sunday

    Time Temperature Precipitation Wind Pressure Humidity
    00:00 -1°C° 0 mm 3 mps 742 mmHg 96%
    01:00 -1°C° 0 mm 2 mps 742 mmHg 96%
    02:00 -1°C° 0 mm 2 mps 742 mmHg 97%
    03:00 -1°C° 0 mm 2 mps 742 mmHg 97%
    04:00 -1°C° 0 mm 2 mps 742 mmHg 97%
    05:00 +1°C° 0 mm 1 mps 742 mmHg 98%
    06:00 +1°C° 0 mm 1 mps 743 mmHg 98%
    07:00 +1°C° 0 mm 1 mps 743 mmHg 98%
    08:00 +1°C° 0 mm 1 mps 743 mmHg 98%
    09:00 +2°C° 0 mm 1 mps 743 mmHg 97%
    10:00 +2°C° 0 mm 1 mps 743 mmHg 97%
    11:00 +2°C° 0 mm 1 mps 744 mmHg 97%
    12:00 +2°C° 0 mm 1 mps 744 mmHg 97%
    13:00 +2°C° 0 mm 1 mps 744 mmHg 97%
    14:00 +2°C° 0 mm 1 mps 743 mmHg 97%
    15:00 +2°C° 0 mm 1 mps 744 mmHg 97%
    16:00 +2°C° 0 mm 1 mps 744 mmHg 98%
    17:00 +1°C° 0 mm 1 mps 744 mmHg 98%
    18:00 -1°C° 0 mm 2 mps 744 mmHg 98%
    19:00 -1°C° 0 mm 2 mps 744 mmHg 98%
    20:00 -1°C° 0 mm 2 mps 744 mmHg 98%
    21:00 +1°C° 0 mm 2 mps 744 mmHg 98%
    22:00 +1°C° 0 mm 2 mps 744 mmHg 98%
    23:00 +1°C° 0 mm 2 mps 744 mmHg 98%
    Show more